Printer-friendly version

IAU Minor Planet Center

Minor Planet Center

MPEC 2006-C04 : 2006 BP147

The following Minor Planet Electronic Circular may be linked-to from your own Web pages, but must not otherwise be redistributed electronically.


Read MPEC 2006-C03 Read MPEC 2006-C05


M.P.E.C. 2006-C04                                Issued 2006 Feb. 2, 20:18 UT

     The Minor Planet Electronic Circulars contain information on unusual
         minor planets and routine data on comets.  They are published
   on behalf of Commission 20 of the International Astronomical Union by the
          Minor Planet Center, Smithsonian Astrophysical Observatory,
                          Cambridge, MA 02138, U.S.A.

                  Supported in part by the Brinson Foundation
                  Supported in part by the TABASGO Foundation
             Prepared using the Tamkin Foundation Computer Network

                              MPC@CFA.HARVARD.EDU
          URL http://cfa-www.harvard.edu/iau/mpc.html  ISSN 1523-6714

                                  2006 BP147

Observations:
     K06BE7P* C2006 01 28.30673 09 06 21.24 +19 41 47.9          21.9 V EC004G96
     K06BE7P  C2006 01 28.31282 09 06 20.37 +19 41 19.8          21.8 V EC004G96
     K06BE7P  C2006 01 28.31892 09 06 19.44 +19 40 53.1          21.6 V EC004G96
     K06BE7P  C2006 01 28.32501 09 06 18.50 +19 40 26.7          22.0 V EC004G96
     K06BE7P  C2006 01 28.33121 09 06 17.85 +19 39 56.1          21.6 V EC004G96
     K06BE7P  C2006 01 28.33209 09 06 17.74 +19 39 51.5          21.5 V EC004G96
     K06BE7P  C2006 01 28.33299 09 06 17.67 +19 39 47.7          21.4 V EC004G96
     K06BE7P  C2006 01 28.33387 09 06 17.46 +19 39 43.7          21.2 V EC004G96
     K06BE7P  C2006 02 01.29639 09 00 43.56 +15 13 28.8          21.6 V EC004G96
     K06BE7P  C2006 02 01.30550 09 00 42.58 +15 12 57.1          21.2 V EC004G96
     K06BE7P  C2006 02 01.31455 09 00 41.65 +15 12 25.9          21.9 V EC004G96
     K06BE7P  C2006 02 01.32348 09 00 40.64 +15 11 53.9          21.5 V EC004G96
     K06BE7P  C2006 02 01.39116 09 00 33.49 +15 07 55.5          22.3 V EC004G96
     K06BE7P  C2006 02 01.39938 09 00 32.65 +15 07 26.1          21.9 V EC004G96
     K06BE7P  C2006 02 01.40749 09 00 31.79 +15 06 57.8          21.9 V EC004G96
     K06BE7P  C2006 02 01.41559 09 00 30.95 +15 06 28.5                 EC004G96
     K06BE7P  C2006 02 02.30308 08 59 32.96 +14 16 30.8          21.5 V EC004G96
     K06BE7P  C2006 02 02.31006 08 59 32.30 +14 16 10.6          21.5 V EC004G96
     K06BE7P  C2006 02 02.31711 08 59 31.53 +14 15 45.0          21.5 V EC004G96
     K06BE7P  C2006 02 02.32410 08 59 30.80 +14 15 22.5          21.5 V EC004G96

Observer details:
G96 Mt. Lemmon Survey.  Observers E. J. Christensen, S. M. Larson, R. Hill.
    Measurers E. C. Beshore, E. J. Christensen, G. J. Garradd, A. D. Grauer,
    R. E. Hill, R. A. Kowalski, S. M. Larson, R. H. McNaught.  1.5-m reflector
    + CCD.

Orbital elements:
2006 BP147                                               Earth MOID = 0.0468 AU
Epoch 2006 Mar. 6.0 TT = JDT 2453800.5                  MPC
M  59.21977              (2000.0)            P               Q
n   0.67489069     Peri.  123.05473     +0.27488258     -0.95864131
a   1.2872031      Node   310.81004     +0.84643835     +0.27768670
e   0.2404394      Incl.    5.59552     +0.45605010     +0.06242543
P   1.46           H   26.5           G   0.15           U   8
Residuals in seconds of arc
060128 G96  0.2+  0.2-    060128 G96  0.1-  0.0     060201 G96  0.2-  0.5+
060128 G96  0.2-  0.4-    060201 G96  0.2-  0.3-    060201 G96  0.5-  0.0
060128 G96  1.4-  0.8+    060201 G96  0.1-  0.2-    060202 G96  0.1+  0.9-
060128 G96 (2.8-  2.3+)   060201 G96  0.5+  0.3+    060202 G96  0.7+  1.8+
060128 G96  0.2+  0.2+    060201 G96  0.2-  0.4-    060202 G96  0.1-  0.7-
060128 G96  0.3+  0.4-    060201 G96  0.2+  0.2+    060202 G96  0.5-  0.3-
060128 G96  1.1+  0.0     060201 G96  0.3+  0.0

Ephemeris:
2006 BP147               a,e,i = 1.29, 0.24, 6                   q = 0.9777
Date    TT    R. A. (2000) Decl.     Delta      r     Elong.  Phase     V
2006 01 25    09 12.39   +24 26.0    0.0716   1.055   168.5    10.7    21.6
2006 01 26    09 10.41   +22 53.6    0.0741   1.058   170.3     9.0    21.6
2006 01 27    09 08.56   +21 27.0    0.0767   1.061   172.0     7.4    21.6
2006 01 28    09 06.84   +20 06.0    0.0793   1.064   173.6     5.9    21.6
2006 01 29    09 05.24   +18 50.3    0.0821   1.067   175.2     4.5    21.6
2006 01 30    09 03.75   +17 39.5    0.0849   1.070   176.5     3.2    21.6
2006 01 31    09 02.36   +16 33.3    0.0879   1.073   177.6     2.2    21.6
2006 02 01    09 01.08   +15 31.5    0.0909   1.076   178.1     1.7    21.7
2006 02 02    08 59.89   +14 33.8    0.0940   1.079   177.6     2.2    21.8
2006 02 03    08 58.79   +13 39.8    0.0972   1.083   176.6     3.1    21.9
2006 02 04    08 57.77   +12 49.5    0.100    1.086   175.5     4.1    22.1

Gareth V. Williams           (C) Copyright 2006 MPC           M.P.E.C. 2006-C04

Read MPEC 2006-C03 Read MPEC 2006-C05


Our Web policy. Index to the CBAT/MPC/ICQ pages.


Valid HTML 4.01!